Tracking 28766 objects as of 13-Apr-2024
HD Live streaming from Space Station
objects crossing your sky now

FREGAT R/B

Track FREGAT R/B now!


NORAD ID: 43688
Int'l Code: 2018-086B
Perigee: 19,307.6 km
Apogee: 19,680.8 km
Inclination: 64.2 °
Period: 690.0 minutes
Semi major axis: 25865 km
RCS: Unknown
Launch date: November 3, 2018
Source: Commonwealth of Independent States (former USSR) (CIS)
Launch site: PLESETSK MISSILE AND SPACE COMPLEX (PKMTR)

Note: This is a ROCKET BODY
Your satellite tracking list
Your tracking list is empty




NASA's NSSDC Master Catalog

Two Line Element Set (TLE):
1 43688U 18086B   24102.52003450  .00000019  00000-0  00000-0 0  9990
2 43688  64.2302 222.4345 0072142 131.3273 229.2848  2.08702926 41192
Source of the keplerian elements: AFSPC